Location: Peterborough
(44.3091°N, 78.3197°W)
Time: 20:23:15
(UTC-04:00)

Vanguard 3 - Pass Details

Date: 25 March 2023
Orbit: 507 x 3246 km, 33.4° (Epoch: 06 June)

Event Time Altitude Azimuth Distance (km) Brightness Sun altitude
Exits shadow 06:45:41 - 257° (WSW) 6,686 11.1 -4.7°
Reaches altitude 10° 06:48:13 10° 255° (WSW) 6,180 11.0 -4.3°
Maximum altitude 07:07:06 57° 185° (S) 3,194 10.2 -0.9°
Drops below altitude 10° 07:20:34 10° 111° (ESE) 4,557 12.4 1.5°
Sets 07:23:34 0° 107° (ESE) 5,243 13.0 2.0°
